Location: Punxsutawney
(40.9447°N, 78.9903°W)
Time: 14:13:22
(UTC-05:00)

Daily predictions for brighter satellites

Satellite Brightness Start Highest point End
(mag) Time Altitude Azimuth Time Altitude Azimuth Time Altitude Azimuth
NOAA 11 4.2 17:38:55 10° SSE 17:44:21 66° ENE 17:49:48 10° N
Okean O Rocket 1.6 17:41:34 10° SSE 17:45:58 66° ENE 17:50:22 10° N
Cosmos 1908 4.4 17:42:55 10° NNW 17:46:40 48° W 17:50:24 10° SSW
Cosmos 1315 Rocket 3.0 17:45:18 10° N 17:49:11 51° ENE 17:53:05 10° SSE
AQUARIUS 4.2 17:46:25 10° SSE 17:50:54 87° ENE 17:55:25 10° NNW
ERS-2 3.6 17:48:56 10° NE 17:51:30 18° E 17:54:03 10° SE
COSMOS 2455 3.3 17:46:24 10° S 17:52:02 43° ESE 17:57:41 10° NE
H-2A R/B 2.9 17:49:00 10° S 17:52:55 67° WSW 17:57:02 10° NNW
Cosmos 2279 Rocket 4.2 17:48:25 10° N 17:54:33 53° E 18:00:37 10° SSE
Cosmos 1777 Rocket 4.3 17:50:22 10° S 17:55:24 49° ESE 18:00:29 10° NNE
MOS 1 Rocket 4.0 17:53:24 10° NE 17:57:08 28° E 18:00:50 10° SSE
Abrixas rocket 3.5 17:56:20 10° WNW 17:58:46 33° SW 18:01:11 10° SSE
Cosmos 783 Rocket 4.5 17:55:02 10° NNW 18:00:16 73° ENE 18:05:30 10° SSE
CSL-04 DEB 4.5 17:56:24 10° NNE 18:00:35 65° ESE 18:04:37 10° S
Meteor 1-24 Rocket 3.6 17:56:32 10° S 18:01:54 79° E 18:07:13 10° NNE
X-37B 2.0 18:00:39 10° SSW 18:03:24 27° SSE 18:05:49 12° E
Cosmos 1943 3.2 17:58:48 10° NNW 18:04:30 86° ENE 18:10:09 10° SSE
ISS -2.7 18:04:05 10° SSW 18:07:05 31° SE 18:09:26 14° ENE
Cosmos 1634 Rocket 4.2 18:01:00 10° N 18:07:15 78° W 18:13:30 10° S
Feng Yun 1-1 Rocket 4.3 18:02:39 10° SSE 18:07:53 54° ENE 18:13:15 10° N
YAOGAN 1 3.7 18:05:22 10° ESE 18:08:42 22° ENE 18:12:04 10° NNE
Cosmos 1892 Rocket 3.7 18:04:49 10° S 18:09:01 51° E 18:13:13 10° NNE
Cosmos 1606 Rocket 3.5 18:05:53 10° N 18:10:16 73° E 18:14:40 10° SSE
CZ-2C R/B 4.3 18:09:26 12° ENE 18:11:16 14° E 18:14:10 10° ESE
H-2A R/B 3.0 18:07:28 10° N 18:11:47 50° WNW 18:16:00 10° SSW
ATLAS 3B R/B 3.4 18:11:19 10° NW 18:18:13 61° WSW 18:25:22 10° SSE
Cosmos 1626 4.4 18:18:19 10° SW 18:21:26 26° WNW 18:24:34 10° NNW
IRS-1C Rocket 4.2 18:18:03 10° SSE 18:23:09 54° ENE 18:28:16 10° N
Helios 1A Rocket 3.9 18:21:17 10° ESE 18:24:41 25° ENE 18:28:05 10° NNE
Cosmos 2228 3.4 18:21:13 10° NNW 18:25:27 66° W 18:29:42 10° S
SKYMED 2 3.5 18:21:28 10° NNE 18:25:50 83° ESE 18:30:10 10° SSW
CZ-2D R/B 3.2 18:22:27 10° SSE 18:26:16 66° ENE 18:30:06 10° N
SJ 16-02 1.9 18:24:26 10° S 18:28:30 38° ESE 18:31:28 17° NE
Lacrosse 5 2.8 18:26:44 10° NNW 18:31:08 29° NNE 18:33:13 22° ENE
Cosmos 1844 Rocket 2.8 18:30:14 10° S 18:35:45 55° ESE 18:40:35 13° NE
CZ-4B R/B 2.2 18:33:19 10° N 18:36:37 50° WNW 18:39:49 10° SSW
Cosmos 2058 Rocket 3.0 18:35:32 10° N 18:40:02 74° E 18:44:32 10° SSE
CZ-2C R/B 3.1 18:36:19 10° SSE 18:41:30 84° ENE 18:47:03 10° NNW
SAR-Lupe-4 3.5 18:39:40 16° NNE 18:42:21 61° ESE 18:45:52 10° S
CZ-4C R/B 4.4 18:40:35 10° WNW 18:43:51 16° NNW 18:47:27 10° N
Okean 1-7 Rocket 3.6 18:42:58 10° S 18:47:30 89° E 18:52:05 10° N
H-2A R/B 2.0 18:44:00 10° SSE 18:48:49 56° ENE 18:53:47 10° N
BREEZE-M DEB (TANK) 4.2 18:47:13 10° W 18:49:44 25° SSW 18:53:27 10° SSE
Nadezhda 4 Rocket 3.9 18:44:29 10° S 18:50:44 79° E 18:56:58 10° N
SAR-Lupe-1 3.9 18:50:57 19° NNE 18:53:23 84° ESE 18:56:57 10° SSW
Cosmos 923 Rocket 4.4 18:49:34 10° N 18:54:36 40° ENE 18:56:48 27° ESE
Cosmos 1689 Rocket 2.0 18:57:41 58° N 18:58:07 77° WNW 19:00:57 10° SSW
Cosmos 1898 Rocket 4.1 18:54:57 10° SSE 18:59:40 34° E 18:59:47 34° E
CSL-04 Rocket 3.8 18:54:32 10° SE 18:59:41 49° ENE 19:04:55 10° N
Aureole 2 Rocket 2.8 18:58:21 10° SW 19:01:15 50° WNW 19:02:11 34° NNW
Cosmos 1680 Rocket 4.1 18:57:27 10° N 19:01:52 35° NE 19:01:52 35° NE
Cosmos 1626 Rocket 3.4 18:58:03 10° S 19:02:21 67° E 19:04:44 26° NNE
Cosmos 1703 3.4 18:58:38 10° S 19:01:58 48° ESE 19:01:58 48° ESE
Meteor 2-10 Rocket 3.9 18:57:10 10° NNW 19:02:38 68° W 19:07:51 10° S
Meteor 2-1 Rocket 4.0 18:57:37 10° N 19:03:13 76° E 19:08:42 10° SSE
Cosmos 1818 3.5 18:58:47 10° SSW 19:04:12 85° WNW 19:07:24 26° NNE
Cosmos 1455 2.0 19:00:37 10° N 19:04:25 79° E 19:08:14 10° S
Cosmos 158 Rocket 4.1 19:00:54 10° N 19:06:09 56° ENE 19:09:35 21° SE
ATLAS 5 CENTAUR R/B 4.0 19:05:08 10° WNW 19:07:31 15° NW 19:10:04 10° N
PSLV R/B 4.3 19:03:36 10° N 19:07:47 64° WNW 19:11:56 10° SSW
USA 267 3.3 19:10:35 36° ENE 19:13:10 57° SE 19:19:33 10° SSW
COSMO-SKYMED 1 4.5 19:10:01 10° N 19:13:47 29° WNW 19:17:31 10° SW
Okean-O 3.0 19:13:35 10° S 19:17:57 62° WSW 19:22:22 10° NNW
CZ-4 R/B 2.3 19:14:45 10° S 19:18:45 50° W 19:22:44 10° NNW
ERS-2 4.1 19:21:55 10° N 19:25:01 27° WNW 19:28:07 10° SW
Cosmos 2026 Rocket 3.8 19:21:58 10° S 19:27:59 72° E 19:33:17 14° NNE
EXPRESS MD2 3.5 19:23:00 10° WNW 19:29:29 86° SW 19:29:29 86° SW
Iridium 4 Rocket 3.5 19:25:10 10° N 19:30:53 81° E 19:36:07 10° S
Cosmos 1937 Rocket 4.5 19:30:55 10° S 19:33:58 33° SSE 19:33:58 33° SSE
COSMOS 2455 4.3 19:32:41 10° WSW 19:38:04 33° NW 19:42:18 15° N
Meteor 2-19 Rocket 4.4 19:32:16 10° S 19:37:56 62° ESE 19:37:56 62° ESE
ARGOS 3.3 19:34:22 10° S 19:39:41 71° WSW 19:45:03 10° NNW
X-37B 3.1 19:36:43 10° W 19:38:06 23° W 19:38:06 23° W
Hubble Space Telescope 3.3 19:38:50 10° SSW 19:40:12 13° S 19:40:12 13° S
Cosmos 1602 Rocket 4.0 19:37:52 10° SSW 19:41:57 59° W 19:41:57 59° W
ISS -1.4 19:40:44 10° W 19:42:24 23° WNW 19:42:24 23° WNW
YAOGAN 1 4.3 19:40:45 10° SSW 19:44:37 32° W 19:48:31 10° NNW
USA 234 4.0 19:46:52 37° NNE 19:46:52 37° NNE 19:52:25 10° NW
CZ-2C R/B 2.8 19:50:55 56° N 19:52:04 76° WNW 19:57:39 10° SSW
SJ 16-02 3.7 20:03:58 10° WSW 20:07:12 20° WNW 20:08:31 17° NW
Lacrosse 5 3.2 20:09:26 10° NW 20:12:28 35° WNW 20:12:28 35° WNW
Cosmos 2344 4.3 20:28:04 10° NW 20:37:50 83° NE 20:38:44 78° ESE
NOSS 3-1 (C) 4.3 20:33:45 10° NW 20:39:59 63° NW 20:39:59 63° NW
USA 267 4.4 20:57:56 37° WNW 20:57:56 37° WNW 21:02:14 10° WSW
